[[{"header":{"parameterUnit":"m.s-1","parameterCategory":1,"la1":30.2991,"la2":30.254,"lo1":-89.0895,"lo2":-89.0444,"dy":0.0017,"dx":0.0017,"nx":28,"ny":28,"refTime":"2024-08-26T09:00:00:Z","depth":0,"parameterNumber":2,"parameterNumberName":"U-component_of_WINDS"},"data":[0,0,0,0,0,0,0,0,0,0,0,0,0,0,0,0,0,0,0,0,0,0,0,0,0,0,0,0,0,0,0,0,0,0,0,0,0,0,0,0,0,0,0,0,0,0,0,0,0,0,0,0,0,0,0,0,0,0,-2.104,-2.104,0,-2.1034,-2.1034,-2.1034,-2.096,-2.0958,-2.0956,-2.0955,-2.095,-2.0951,-2.0953,0,0,0,0,0,0,0,0,0,0,0,0,0,-2.0988,-2.0989,-2.104,-2.104,-2.104,-2.1034,-2.1034,-2.1034,-2.0961,-2.0958,-2.0956,-2.0954,-2.0949,-2.0951,-2.0953,0,0,0,0,0,0,0,0,0,0,0,0,0,-2.0999,-2.099,-2.104,-2.1002,-2.0999,-2.1034,-2.1034,-2.1034,-2.0961,-2.0958,-2.0955,-2.0953,-2.0949,-2.0951,-2.0953,-2.1024,0,0,-2.0961,-2.0962,0,0,0,0,0,0,0,0,-2.0999,-2.1001,-2.1008,-2.1005,-2.1001,-2.0995,-2.1014,-2.1031,-2.0962,-2.0976,-2.0955,-2.0951,-2.0967,-2.0968,-2.0973,-2.1024,-2.1024,-2.0961,-2.0962,-2.0963,-2.0964,0,0,0,0,0,0,0,-2.0998,-2.1001,-2.1038,-2.1008,-2.1004,-2.0986,-2.0985,-2.1017,-2.0987,-2.0974,-2.0969,-2.0969,-2.0965,-2.0971,-2.0972,-2.1024,-2.0961,-2.0963,-2.0964,-2.0965,-2.1133,-2.1136,0,0,0,0,0,0,-2.1002,-2.1001,-2.1038,-2.1038,-2.0993,-2.0989,-2.0988,-2.1,-2.0987,-2.0982,-2.0971,-2.0966,-2.0968,-2.097,-2.0972,-2.1054,-2.0963,-2.0966,-2.0967,-2.113,-2.1134,-2.1137,0,0,0,0,0,0,-2.1001,-2.1006,-2.1038,-2.1018,-2.102,-2.0993,-2.1008,-2.1001,-2.1007,-2.0985,-2.0979,-2.0983,-2.0966,-2.0968,-2.1012,-2.1053,-2.0967,-2.0969,-2.1126,-2.1131,-2.1135,-2.1219,0,0,0,0,0,0,-2.1,-2.1006,-2.1033,-2.1019,-2.1022,-2.1078,-2.101,-2.1003,-2.1012,-2.1004,-2.0994,-2.099,-2.0964,-2.1009,-2.1014,-2.1055,-2.0971,-2.1123,-2.1128,-2.1134,-2.1213,-2.1226,-2.1237,0,0,0,0,0,-2.0999,-2.1057,-2.1035,-2.104,-2.1055,-2.1081,-2.1082,-2.1051,-2.1015,-2.1042,-2.1027,-2.099,-2.1047,-2.1014,-2.1019,-2.1061,-2.112,-2.1127,-2.1133,-2.1207,-2.1223,-2.1237,0,0,0,0,0,0,-2.1077,-2.1055,-2.103,-2.1085,-2.1086,-2.1068,-2.1101,-2.107,-2.108,-2.1073,-2.1034,-2.1033,-2.1082,-2.1076,-2.1038,-2.1129,-2.1077,-2.1085,-2.1131,-2.1147,-2.1159,-2.1159,-2.0973,0,0,0,0,0,-2.1101,-2.1124,-2.1103,-2.1154,-2.1156,-2.1129,-2.1139,-2.1115,-2.1114,-2.1113,-2.1102,-2.1102,-2.112,-2.1133,-2.1148,-2.1211,-2.1208,-2.1243,-2.1255,-2.1266,-2.1273,-2.1306,-2.1321,-2.1159,-2.1159,-2.1159,0,0,-2.1151,-2.1141,-2.1158,-2.117,-2.1167,-2.1192,-2.1129,-2.1158,-2.1176,-2.1118,-2.1158,-2.115,-2.1148,-2.1201,-2.1224,-2.1197,-2.1317,-2.1274,-2.1283,-2.1285,-2.1314,-2.133,-2.1344,-2.1164,-2.1163,-2.1162,0,0,-2.1253,-2.1249,-2.129,-2.1289,-2.1286,-2.1267,-2.1277,-2.1265,-2.1257,-2.1296,-2.1253,-2.1274,-2.1306,-2.1306,-2.1311,-2.1414,-2.138,-2.142,-2.1485,-2.1517,-2.153,-2.1541,-2.1578,-2.1591,-2.1427,-2.1428,-2.1428,0,-2.1315,-2.1351,-2.1316,-2.1348,-2.1354,-2.1302,-2.1345,-2.1345,-2.1347,-2.1353,-2.1323,-2.1362,-2.1357,-2.141,-2.1435,-2.144,-2.145,-2.1421,-2.1531,-2.1541,-2.1551,-2.1586,-2.16,-2.1432,-2.1432,-2.1431,-2.1431,0,-2.1427,-2.1452,-2.1487,-2.149,-2.15,-2.1537,-2.1508,-2.1523,-2.1498,-2.1483,-2.1524,-2.1516,-2.1529,-2.1539,-2.1516,-2.1589,-2.1572,-2.1537,-2.1484,-2.1572,-2.1604,-2.1617,-2.1439,-2.1438,-2.1436,-2.1435,0,0,-2.1579,-2.1562,-2.1576,-2.1576,-2.1568,-2.1587,-2.1622,-2.1634,-2.1648,-2.1651,-2.1679,-2.1707,-2.1675,-2.168,-2.1655,-2.1684,-2.1766,-2.1645,-2.1644,-2.1668,-2.1846,-2.1873,-2.1888,-2.1743,-2.1746,-2.1748,-2.1846,0,-2.1678,-2.1736,-2.1706,-2.1768,-2.1791,-2.1742,-2.1772,-2.177,-2.1757,-2.1775,-2.176,-2.1781,-2.1736,-2.1739,-2.1765,-2.175,-2.1801,-2.1743,-2.1769,-2.1771,-2.1771,-2.1905,-2.1933,-2.2026,-2.1858,-2.186,-2.1862,0,-2.1802,-2.181,-2.1874,-2.1862,-2.187,-2.1898,-2.1906,-2.1924,-2.1921,-2.191,-2.1915,-2.1884,-2.1918,-2.1865,-2.1911,-2.1872,-2.1881,-2.1875,-2.1878,-2.188,-2.1822,-2.191,-2.2055,-2.207,-2.1881,-2.188,-2.1878,0,-2.1906,-2.1933,-2.1975,-2.1977,-2.1964,-2.1984,-2.198,-2.1975,-2.1984,-2.1991,-2.1997,-2.2009,-2.2015,-2.2025,-2.1998,-2.1963,-2.2048,-2.1993,-2.2039,-2.204,-2.2059,-2.2058,-2.2208,-2.2065,-2.2065,-2.2065,-2.2064,0,-2.202,-2.2061,-2.2022,-2.2047,-2.2092,-2.2057,-2.2102,-2.2092,-2.2088,-2.2111,-2.207,-2.2092,-2.2055,-2.2074,-2.2054,-2.2094,-2.2098,-2.2089,-2.2083,-2.2093,-2.2094,-2.2098,-2.2091,-2.2068,-2.2067,-2.2067,-2.2066,0,-2.2145,-2.212,-2.2162,-2.2146,-2.2143,-2.2177,-2.2163,-2.2186,-2.217,-2.22,-2.2205,-2.2179,-2.2199,-2.2173,-2.2191,-2.2177,-2.2233,-2.2217,-2.2234,-2.2229,-2.2277,-2.2273,-2.2435,-2.2454,-2.2299,-2.2301,-2.2302,0,-2.2219,-2.2249,-2.2237,-2.2249,-2.2247,-2.2267,-2.2276,-2.2243,-2.2254,-2.2253,-2.2277,-2.2293,-2.2305,-2.234,-2.2323,-2.2336,-2.2321,-2.2377,-2.2323,-2.2331,-2.2322,-2.232,-2.2323,-2.2388,-2.239,-2.2391,-2.2392,0,-2.2354,-2.234,-2.2354,-2.2364,-2.2376,-2.2383,-2.2386,-2.2399,-2.2364,-2.2378,-2.2398,-2.2407,-2.2425,-2.2443,-2.2452,-2.2447,-2.2415,-2.241,-2.2421,-2.2431,-2.244,-2.2436,-2.2264,-2.2406,-2.2405,-2.2404,-2.2403,-2.2402,-2.2455,-2.248,-2.2475,-2.2492,-2.2491,-2.2495,-2.2516,-2.2502,-2.2518,-2.253,-2.2509,-2.2535,-2.2531,-2.254,-2.2539,-2.2558,-2.2534,-2.2551,-2.2555,-2.256,-2.2567,-2.2437,-2.256,-2.256,-2.2559,-2.2559,-2.2559,0,-2.2588,-2.2582,-2.2598,-2.2604,-2.2618,-2.2585,-2.2587,-2.2601,-2.2624,-2.2623,-2.2635,-2.2658,-2.2674,-2.2659,-2.2672,-2.2691,-2.2676,-2.2696,-2.2694,-2.2694,-2.2588,-2.2577,-2.2707,-2.2707,-2.2707,-2.2707,-2.2707,-2.2707,-2.2658,-2.2698,-2.2684,-2.2723,-2.2716,-2.274,-2.2745,-2.2748,-2.2747,-2.2775,-2.2788,-2.2778,-2.2771,-2.2784,-2.2797,-2.2792,-2.2799,-2.2824,-2.2814,-2.2716,-2.2701,-2.2687,-2.2676,-2.2826,-2.2826,-2.2918,-2.2919,-2.2919]},{"header":{"parameterUnit":"m.s-1","parameterCategory":1,"la1":30.2991,"la2":30.254,"lo1":-89.0895,"lo2":-89.0444,"dy":0.0017,"dx":0.0017,"nx":28,"ny":28,"refTime":"2024-08-26T09:00:00:Z","depth":0,"parameterNumber":3,"parameterNumberName":"V-component_of_WINDS"},"data":[0,0,0,0,0,0,0,0,0,0,0,0,0,0,0,0,0,0,0,0,0,0,0,0,0,0,0,0,0,0,0,0,0,0,0,0,0,0,0,0,0,0,0,0,0,0,0,0,0,0,0,0,0,0,0,0,0,0,1.0037,1.0036,0,0.9998,0.9998,0.9997,0.9944,0.9943,0.9942,0.9941,0.99,0.99,0.99,0,0,0,0,0,0,0,0,0,0,0,0,0,1.0064,1.0064,1.0037,1.0036,1.0036,0.9998,0.9998,0.9997,0.9944,0.9943,0.9942,0.9941,0.99,0.99,0.99,0,0,0,0,0,0,0,0,0,0,0,0,0,1.0042,1.0064,1.0037,1.0005,1.0002,0.9998,0.9998,0.9997,0.9944,0.9943,0.9941,0.994,0.99,0.99,0.99,0.9924,0,0,0.9898,0.9898,0,0,0,0,0,0,0,0,1.0043,1.0041,1.001,1.0007,1.0003,0.9974,0.9992,0.9973,0.9944,0.9966,0.9941,0.9939,0.9926,0.9923,0.9919,0.9922,0.9921,0.9898,0.9898,0.9898,0.9898,0,0,0,0,0,0,0,1.0045,1.0042,1.0021,1.001,1.0006,0.9992,0.9987,0.9988,0.9954,0.9964,0.996,0.9956,0.9924,0.9919,0.9918,0.992,0.9898,0.9898,0.9898,0.9898,0.9941,0.9943,0,0,0,0,0,0,1.0051,1.0044,1.0023,1.002,1.002,0.9993,0.9987,0.9985,0.9954,0.9948,0.9957,0.9954,0.9921,0.9918,0.9916,0.9942,0.9898,0.9898,0.9897,0.994,0.9942,0.9943,0,0,0,0,0,0,1.0052,1.005,1.0024,1.0031,1.0027,0.9994,0.9991,0.9985,0.998,0.9949,0.9942,0.9959,0.992,0.9916,0.9923,0.994,0.9897,0.9897,0.9938,0.9941,0.9942,0.9995,0,0,0,0,0,0,1.0053,1.005,1.0059,1.0032,1.0027,1.0032,0.9992,0.9985,0.998,0.9975,0.9949,0.9943,0.9918,0.9923,0.9922,0.9939,0.9897,0.9937,0.9939,0.9942,0.9992,0.9999,1.0005,0,0,0,0,0,1.0054,1.0076,1.006,1.0058,1.0037,1.0033,1.003,1.0001,0.9982,0.999,0.997,0.9944,0.9939,0.9925,0.9923,0.9939,0.9935,0.9939,0.9942,0.9989,0.9998,1.0005,0,0,0,0,0,0,1.0106,1.0071,1.0054,1.0067,1.0054,1.0024,1.0034,1.0012,1.0003,0.9998,0.9963,0.9957,0.9968,0.9954,0.9939,0.9961,0.9933,0.9936,0.997,0.9978,0.9984,0.9986,0.9897,0,0,0,0,0,1.0119,1.0119,1.0089,1.0103,1.0097,1.0067,1.0064,1.0043,1.0028,1.0021,1.0001,0.9987,0.9982,0.9979,0.9973,0.999,0.9983,1.0001,1.0007,1.0013,1.0015,1.0023,1.003,0.9953,0.9953,0.9953,0,0,1.0146,1.0127,1.0129,1.0113,1.01,1.01,1.0063,1.0064,1.0064,1.0022,1.0026,1.0011,0.9992,1.0004,1.0008,0.9993,1.0035,1.0017,1.0022,1.0021,1.0027,1.0034,1.0041,0.9956,0.9955,0.9955,0,0,1.0195,1.0181,1.0191,1.0179,1.016,1.014,1.0143,1.0117,1.0105,1.0109,1.0078,1.0077,1.0069,1.0057,1.005,1.0095,1.007,1.0094,1.0128,1.0136,1.0142,1.0147,1.0162,1.0168,1.0097,1.0097,1.0097,0,1.023,1.0229,1.0199,1.0203,1.0197,1.0159,1.0169,1.0159,1.0139,1.0135,1.0119,1.0109,1.0094,1.0102,1.0113,1.0109,1.011,1.0096,1.0143,1.0148,1.0152,1.0166,1.0172,1.01,1.01,1.0099,1.0099,0,1.0273,1.0273,1.0284,1.0266,1.0261,1.0268,1.0239,1.0238,1.0218,1.02,1.0204,1.0185,1.0174,1.0175,1.0155,1.018,1.0171,1.015,1.012,1.0163,1.0176,1.0181,1.0104,1.0103,1.0102,1.0101,0,0,1.0352,1.0318,1.0322,1.0313,1.029,1.0289,1.0295,1.0285,1.0284,1.0272,1.0275,1.027,1.025,1.0242,1.022,1.0228,1.0264,1.0205,1.0204,1.0216,1.0289,1.0304,1.0311,1.0248,1.0249,1.025,1.029,0,1.0395,1.0402,1.0376,1.039,1.0389,1.0354,1.0359,1.0345,1.0328,1.0325,1.0307,1.0303,1.0278,1.0272,1.0278,1.0258,1.0278,1.0255,1.0249,1.025,1.0254,1.0318,1.0334,1.0373,1.0295,1.0296,1.0296,0,1.0446,1.0436,1.045,1.0427,1.0425,1.043,1.0418,1.0416,1.04,1.0387,1.0379,1.0355,1.0358,1.0331,1.0335,1.032,1.0316,1.0306,1.0307,1.0304,1.0275,1.0315,1.0385,1.0391,1.0304,1.0303,1.0303,0,1.05,1.0492,1.0498,1.0492,1.0465,1.0469,1.0458,1.044,1.0436,1.0426,1.0422,1.0413,1.0408,1.0401,1.0375,1.0358,1.0381,1.0352,1.037,1.0371,1.0375,1.0375,1.0444,1.0375,1.0375,1.0375,1.0375,0,1.055,1.056,1.0523,1.0527,1.0537,1.0507,1.0517,1.0502,1.0487,1.0488,1.0457,1.0458,1.0424,1.0422,1.0401,1.0407,1.0405,1.0394,1.0389,1.0396,1.0398,1.0392,1.0388,1.0377,1.0376,1.0376,1.0376,0,1.0612,1.0588,1.0593,1.0567,1.0561,1.0569,1.0546,1.0549,1.0531,1.0532,1.0531,1.0502,1.0498,1.0471,1.046,1.0447,1.0459,1.0448,1.0465,1.0461,1.0479,1.0478,1.0546,1.0553,1.0482,1.0483,1.0483,0,1.0644,1.0651,1.0626,1.0625,1.0615,1.0613,1.0608,1.0579,1.0576,1.0558,1.0563,1.0556,1.0548,1.0543,1.052,1.0512,1.05,1.0525,1.0498,1.0506,1.0499,1.0498,1.0499,1.053,1.0531,1.0532,1.0532,0,1.0705,1.0692,1.0687,1.0678,1.0674,1.0665,1.0655,1.0655,1.0623,1.0621,1.0616,1.061,1.0599,1.0592,1.058,1.0568,1.0545,1.0541,1.0544,1.0552,1.056,1.0555,1.0479,1.0539,1.0539,1.0538,1.0538,1.0537,1.0752,1.0756,1.0739,1.0734,1.0724,1.0715,1.0716,1.0699,1.0694,1.0683,1.0667,1.0664,1.0648,1.0629,1.0619,1.0616,1.0603,1.0608,1.0609,1.061,1.0614,1.0562,1.0614,1.0614,1.0614,1.0613,1.0613,0,1.0809,1.0797,1.0793,1.078,1.0776,1.0756,1.0743,1.0741,1.0739,1.0726,1.072,1.0714,1.0708,1.0686,1.0677,1.0679,1.0668,1.0677,1.0676,1.0674,1.0627,1.0624,1.0686,1.0686,1.0686,1.0686,1.0686,1.0686,1.0839,1.0844,1.0831,1.0831,1.0818,1.0816,1.081,1.0802,1.0791,1.0787,1.0781,1.0767,1.0751,1.074,1.0733,1.0727,1.0724,1.0737,1.0727,1.0684,1.0677,1.067,1.0667,1.0737,1.0738,1.0774,1.0774,1.0775]}]]